Time,TemperatureF,DewpointF,PressureIn,WindDirection,WindDirectionDegrees,WindSpeedMPH,WindSpeedGustMPH,Humidity,HourlyPrecipIn,Conditions,Clouds,dailyrainin,SoftwareType,DateUTC
2014-01-07 00:01:00,6.1,-9.4,30.16,ESE,107,0.0,0.0,48,0.00,,,0.00,Wunderground v.1.15,2014-01-07 05:01:00,
2014-01-07 00:02:00,6.1,-9.4,30.16,East,82,0.0,0.0,48,0.00,,,0.00,Wunderground v.1.15,2014-01-07 05:02:00,
2014-01-07 00:06:00,6.3,-10.1,30.16,ENE,69,0.0,0.0,46,0.00,,,0.00,Wunderground v.1.15,2014-01-07 05:06:00,
2014-01-07 00:07:00,6.3,-9.7,30.16,ENE,72,0.0,0.0,47,0.00,,,0.00,Wunderground v.1.15,2014-01-07 05:07:00,
2014-01-07 00:12:00,6.3,-9.7,30.16,ENE,69,0.0,0.0,47,0.00,,,0.00,Wunderground v.1.15,2014-01-07 05:12:00,
2014-01-07 00:13:00,6.3,-10.1,30.16,ENE,69,0.0,0.0,46,0.00,,,0.00,Wunderground v.1.15,2014-01-07 05:13:00,
2014-01-07 00:19:00,6.1,-9.4,30.16,ENE,69,0.0,0.0,48,0.00,,,0.00,Wunderground v.1.15,2014-01-07 05:19:00,
2014-01-07 00:25:00,6.0,-10.8,30.16,WSW,237,0.0,0.0,45,0.00,,,0.00,Wunderground v.1.15,2014-01-07 05:25:00,
2014-01-07 00:30:00,6.0,-10.4,30.17,WSW,253,0.0,0.0,46,0.00,,,0.00,Wunderground v.1.15,2014-01-07 05:30:00,
2014-01-07 00:36:00,6.0,-9.9,30.17,WNW,294,0.0,0.0,47,0.00,,,0.00,Wunderground v.1.15,2014-01-07 05:36:00,
2014-01-07 00:41:00,6.0,-9.9,30.17,SW,234,0.0,0.0,47,0.00,,,0.00,Wunderground v.1.15,2014-01-07 05:41:00,
2014-01-07 00:47:00,5.8,-10.6,30.17,SW,233,0.0,0.0,46,0.00,,,0.00,Wunderground v.1.15,2014-01-07 05:47:00,
2014-01-07 00:52:00,5.8,-11.5,30.17,NNW,336,0.0,0.0,44,0.00,,,0.00,Wunderground v.1.15,2014-01-07 05:52:00,
2014-01-07 00:58:00,5.8,-11.0,30.17,SSW,199,0.0,0.0,45,0.00,,,0.00,Wunderground v.1.15,2014-01-07 05:58:00,
2014-01-07 01:03:00,5.6,-11.2,30.17,SSW,213,0.0,0.0,45,0.00,,,0.00,Wunderground v.1.15,2014-01-07 06:03:00,
2014-01-07 01:09:00,5.6,-11.6,30.17,NE,42,0.0,0.0,44,0.00,,,0.00,Wunderground v.1.15,2014-01-07 06:09:00,
2014-01-07 01:15:00,5.6,-11.6,30.17,SW,223,0.0,0.0,44,0.00,,,0.00,Wunderground v.1.15,2014-01-07 06:15:00,
2014-01-07 01:20:00,5.6,-11.2,30.17,North,6,0.0,0.0,45,0.00,,,0.00,Wunderground v.1.15,2014-01-07 06:20:00,
2014-01-07 01:26:00,5.6,-11.2,30.17,East,86,0.0,0.0,45,0.00,,,0.00,Wunderground v.1.15,2014-01-07 06:26:00,
2014-01-07 01:31:00,5.6,-11.2,30.17,NNE,25,0.0,0.0,45,0.00,,,0.00,Wunderground v.1.15,2014-01-07 06:31:00,
2014-01-07 01:37:00,5.4,-11.4,30.17,West,270,0.0,0.0,45,0.00,,,0.00,Wunderground v.1.15,2014-01-07 06:37:00,
2014-01-07 01:43:00,5.4,-11.4,30.17,NNE,23,0.0,0.0,45,0.00,,,0.00,Wunderground v.1.15,2014-01-07 06:43:00,
2014-01-07 01:49:00,5.4,-10.9,30.18,NNE,30,0.0,0.0,46,0.00,,,0.00,Wunderground v.1.15,2014-01-07 06:49:00,
2014-01-07 01:55:00,5.4,-11.4,30.18,North,0,0.0,0.0,45,0.00,,,0.00,Wunderground v.1.15,2014-01-07 06:55:00,
2014-01-07 02:00:00,5.4,-11.4,30.19,NNW,343,0.0,0.0,45,0.00,,,0.00,Wunderground v.1.15,2014-01-07 07:00:00,
2014-01-07 02:06:00,5.4,-11.4,30.19,NE,35,0.0,0.0,45,0.00,,,0.00,Wunderground v.1.15,2014-01-07 07:06:00,
2014-01-07 02:12:00,5.4,-11.8,30.19,ENE,78,0.0,0.0,44,0.00,,,0.00,Wunderground v.1.15,2014-01-07 07:12:00,
2014-01-07 02:17:00,5.2,-11.6,30.20,NNE,16,0.0,0.0,45,0.00,,,0.00,Wunderground v.1.15,2014-01-07 07:17:00,
2014-01-07 02:19:00,5.2,-11.1,30.20,NNE,23,0.0,0.0,46,0.00,,,0.00,Wunderground v.1.15,2014-01-07 07:19:00,
2014-01-07 02:25:00,5.2,-11.6,30.20,NNE,23,0.0,0.0,45,0.00,,,0.00,Wunderground v.1.15,2014-01-07 07:25:00,
2014-01-07 02:30:00,5.2,-11.1,30.21,NNE,28,0.0,0.0,46,0.00,,,0.00,Wunderground v.1.15,2014-01-07 07:30:00,
2014-01-07 02:36:00,5.2,-11.1,30.21,NNE,32,0.0,0.0,46,0.00,,,0.00,Wunderground v.1.15,2014-01-07 07:36:00,
2014-01-07 02:41:00,5.0,-10.9,30.21,NNE,32,0.0,0.0,47,0.00,,,0.00,Wunderground v.1.15,2014-01-07 07:41:00,
2014-01-07 02:47:00,5.0,-10.9,30.22,NNE,32,0.0,0.0,47,0.00,,,0.00,Wunderground v.1.15,2014-01-07 07:47:00,
2014-01-07 02:51:00,5.2,-11.1,30.22,ESE,114,0.0,0.0,46,0.00,,,0.00,Wunderground v.1.15,2014-01-07 07:51:00,
2014-01-07 02:56:00,5.2,-10.7,30.22,NNE,21,0.0,0.0,47,0.00,,,0.00,Wunderground v.1.15,2014-01-07 07:56:00,
2014-01-07 03:02:00,5.0,-10.4,30.22,NNE,25,0.0,0.0,48,0.00,,,0.00,Wunderground v.1.15,2014-01-07 08:02:00,
2014-01-07 03:08:00,5.0,-10.4,30.22,NNE,25,0.0,0.0,48,0.00,,,0.00,Wunderground v.1.15,2014-01-07 08:08:00,
2014-01-07 03:14:00,4.8,-11.5,30.22,NNE,25,0.0,0.0,46,0.00,,,0.00,Wunderground v.1.15,2014-01-07 08:14:00,
2014-01-07 03:20:00,4.8,-11.1,30.23,NNE,25,0.0,0.0,47,0.00,,,0.00,Wunderground v.1.15,2014-01-07 08:20:00,
2014-01-07 03:25:00,4.8,-11.1,30.23,NNE,27,0.0,0.0,47,0.00,,,0.00,Wunderground v.1.15,2014-01-07 08:25:00,
2014-01-07 03:31:00,4.8,-11.1,30.24,NNE,27,0.0,0.0,47,0.00,,,0.00,Wunderground v.1.15,2014-01-07 08:31:00,
2014-01-07 03:36:00,4.8,-10.6,30.24,NNE,27,0.0,0.0,48,0.00,,,0.00,Wunderground v.1.15,2014-01-07 08:36:00,
2014-01-07 03:42:00,4.7,-10.7,30.24,NNE,27,0.0,0.0,48,0.00,,,0.00,Wunderground v.1.15,2014-01-07 08:42:00,
2014-01-07 03:48:00,4.5,-10.9,30.24,WNW,288,0.0,0.0,48,0.00,,,0.00,Wunderground v.1.15,2014-01-07 08:48:00,
2014-01-07 03:53:00,4.5,-10.9,30.24,WNW,288,0.0,0.0,48,0.00,,,0.00,Wunderground v.1.15,2014-01-07 08:53:00,
2014-01-07 03:59:00,4.3,-11.1,30.24,WNW,288,0.0,0.0,48,0.00,,,0.00,Wunderground v.1.15,2014-01-07 08:59:00,
2014-01-07 04:05:00,4.1,-11.3,30.25,WNW,288,0.0,0.0,48,0.00,,,0.00,Wunderground v.1.15,2014-01-07 09:05:00,
2014-01-07 04:10:00,4.1,-11.3,30.25,WNW,288,0.0,0.0,48,0.00,,,0.00,Wunderground v.1.15,2014-01-07 09:10:00,
2014-01-07 04:16:00,3.9,-10.6,30.26,NNW,336,0.0,0.0,50,0.00,,,0.00,Wunderground v.1.15,2014-01-07 09:16:00,
2014-01-07 04:21:00,3.7,-11.6,30.26,North,349,0.0,0.0,48,0.00,,,0.00,Wunderground v.1.15,2014-01-07 09:21:00,
2014-01-07 04:27:00,3.7,-11.2,30.26,North,349,0.0,0.0,49,0.00,,,0.00,Wunderground v.1.15,2014-01-07 09:27:00,
2014-01-07 04:32:00,3.7,-11.2,30.25,North,349,0.0,0.0,49,0.00,,,0.00,Wunderground v.1.15,2014-01-07 09:32:00,
2014-01-07 04:38:00,3.5,-11.8,30.25,North,349,0.0,0.0,48,0.00,,,0.00,Wunderground v.1.15,2014-01-07 09:38:00,
2014-01-07 04:43:00,3.5,-11.8,30.25,North,349,0.0,0.0,48,0.00,,,0.00,Wunderground v.1.15,2014-01-07 09:43:00,
2014-01-07 04:49:00,3.7,-11.6,30.26,North,350,0.0,0.0,48,0.00,,,0.00,Wunderground v.1.15,2014-01-07 09:49:00,
2014-01-07 04:54:00,3.9,-11.9,30.26,North,352,0.0,0.0,47,0.00,,,0.00,Wunderground v.1.15,2014-01-07 09:54:00,
2014-01-07 05:00:00,3.9,-11.9,30.26,North,353,0.0,0.0,47,0.00,,,0.00,Wunderground v.1.15,2014-01-07 10:00:00,
2014-01-07 05:06:00,3.9,-11.9,30.26,North,354,0.0,0.0,47,0.00,,,0.00,Wunderground v.1.15,2014-01-07 10:06:00,
2014-01-07 05:11:00,3.9,-11.9,30.26,North,354,0.0,0.0,47,0.00,,,0.00,Wunderground v.1.15,2014-01-07 10:11:00,
2014-01-07 05:17:00,3.9,-11.9,30.28,North,354,0.0,0.0,47,0.00,,,0.00,Wunderground v.1.15,2014-01-07 10:17:00,
2014-01-07 05:23:00,3.7,-11.2,30.28,North,354,0.0,0.0,49,0.00,,,0.00,Wunderground v.1.15,2014-01-07 10:23:00,
2014-01-07 05:28:00,3.5,-11.8,30.28,North,354,0.0,0.0,48,0.00,,,0.00,Wunderground v.1.15,2014-01-07 10:28:00,
2014-01-07 05:34:00,3.5,-11.4,30.27,North,354,0.0,0.0,49,0.00,,,0.00,Wunderground v.1.15,2014-01-07 10:34:00,
2014-01-07 05:40:00,3.5,-11.4,30.27,North,354,0.0,0.0,49,0.00,,,0.00,Wunderground v.1.15,2014-01-07 10:40:00,
2014-01-07 05:45:00,3.4,-11.9,30.27,North,354,0.0,0.0,48,0.00,,,0.00,Wunderground v.1.15,2014-01-07 10:45:00,
2014-01-07 05:50:00,3.4,-10.7,30.27,North,354,0.0,0.0,51,0.00,,,0.00,Wunderground v.1.15,2014-01-07 10:50:00,
2014-01-07 05:56:00,3.2,-11.3,30.27,North,354,0.0,0.0,50,0.00,,,0.00,Wunderground v.1.15,2014-01-07 10:56:00,
2014-01-07 06:02:00,3.2,-11.3,30.28,North,354,0.0,0.0,50,0.00,,,0.00,Wunderground v.1.15,2014-01-07 11:02:00,
2014-01-07 06:08:00,3.0,-10.7,30.28,North,354,0.0,0.0,52,0.00,,,0.00,Wunderground v.1.15,2014-01-07 11:08:00,
2014-01-07 06:13:00,3.0,-10.7,30.28,North,354,0.0,0.0,52,0.00,,,0.00,Wunderground v.1.15,2014-01-07 11:13:00,
2014-01-07 06:19:00,2.8,-10.1,30.30,North,356,0.0,0.0,54,0.00,,,0.00,Wunderground v.1.15,2014-01-07 11:19:00,
2014-01-07 06:24:00,2.8,-10.1,30.30,North,354,0.0,0.0,54,0.00,,,0.00,Wunderground v.1.15,2014-01-07 11:24:00,
2014-01-07 06:30:00,2.6,-9.9,30.30,North,356,0.0,0.0,55,0.00,,,0.00,Wunderground v.1.15,2014-01-07 11:30:00,
2014-01-07 06:35:00,2.6,-9.9,30.30,North,354,0.0,0.0,55,0.00,,,0.00,Wunderground v.1.15,2014-01-07 11:35:00,
2014-01-07 06:41:00,2.4,-10.1,30.30,North,354,0.0,0.0,55,0.00,,,0.00,Wunderground v.1.15,2014-01-07 11:41:00,
2014-01-07 06:46:00,2.4,-9.0,30.29,North,354,0.0,0.0,58,0.00,,,0.00,Wunderground v.1.15,2014-01-07 11:46:00,
2014-01-07 06:52:00,2.2,-9.2,30.29,North,354,0.0,0.0,58,0.00,,,0.00,Wunderground v.1.15,2014-01-07 11:52:00,
2014-01-07 06:57:00,2.0,-9.4,30.29,North,354,0.0,0.0,58,0.00,,,0.00,Wunderground v.1.15,2014-01-07 11:57:00,
2014-01-07 07:03:00,2.0,-9.8,30.29,North,354,0.0,0.0,57,0.00,,,0.00,Wunderground v.1.15,2014-01-07 12:03:00,
2014-01-07 07:09:00,2.0,-10.5,30.29,North,354,0.0,0.0,55,0.00,,,0.00,Wunderground v.1.15,2014-01-07 12:09:00,
2014-01-07 07:14:00,2.0,-10.5,30.29,North,354,0.0,0.0,55,0.00,,,0.00,Wunderground v.1.15,2014-01-07 12:14:00,
2014-01-07 07:20:00,2.0,-11.2,30.30,North,354,0.0,0.0,53,0.00,,,0.00,Wunderground v.1.15,2014-01-07 12:20:00,
2014-01-07 07:25:00,2.2,-11.0,30.30,North,354,0.0,0.0,53,0.00,,,0.00,Wunderground v.1.15,2014-01-07 12:25:00,
2014-01-07 07:31:00,2.2,-10.3,30.30,North,354,0.0,0.0,55,0.00,,,0.00,Wunderground v.1.15,2014-01-07 12:31:00,
2014-01-07 07:36:00,2.2,-9.9,30.30,North,354,0.0,0.0,56,0.00,,,0.00,Wunderground v.1.15,2014-01-07 12:36:00,
2014-01-07 07:42:00,2.2,-10.7,30.30,North,354,0.0,0.0,54,0.00,,,0.00,Wunderground v.1.15,2014-01-07 12:42:00,
2014-01-07 07:47:00,2.4,-10.5,30.31,North,356,0.0,0.0,54,0.00,,,0.00,Wunderground v.1.15,2014-01-07 12:47:00,
2014-01-07 07:53:00,2.4,-10.5,30.31,North,357,0.0,0.0,54,0.00,,,0.00,Wunderground v.1.15,2014-01-07 12:53:00,
2014-01-07 07:59:00,2.6,-9.9,30.31,North,357,0.0,0.0,55,0.00,,,0.00,Wunderground v.1.15,2014-01-07 12:59:00,
2014-01-07 08:05:00,3.0,-10.3,30.33,North,0,0.0,0.0,53,0.00,,,0.00,Wunderground v.1.15,2014-01-07 13:05:00,
2014-01-07 08:11:00,3.9,-10.2,30.33,North,8,0.0,0.0,51,0.00,,,0.00,Wunderground v.1.15,2014-01-07 13:11:00,
2014-01-07 08:17:00,4.7,-10.3,30.35,North,0,0.0,0.0,49,0.00,,,0.00,Wunderground v.1.15,2014-01-07 13:17:00,
2014-01-07 08:22:00,5.4,-10.5,30.35,NNE,23,0.0,0.0,47,0.00,,,0.00,Wunderground v.1.15,2014-01-07 13:22:00,
2014-01-07 08:28:00,5.8,-11.0,30.35,West,260,0.0,2.0,45,0.00,,,0.00,Wunderground v.1.15,2014-01-07 13:28:00,
2014-01-07 08:33:00,6.1,-10.7,30.37,WSW,251,1.0,2.0,45,0.00,,,0.00,Wunderground v.1.15,2014-01-07 13:33:00,
2014-01-07 08:39:00,6.5,-10.8,30.37,SW,234,1.0,5.0,44,0.00,,,0.00,Wunderground v.1.15,2014-01-07 13:39:00,
2014-01-07 08:44:00,7.0,-11.8,30.37,West,261,1.0,6.0,41,0.00,,,0.00,Wunderground v.1.15,2014-01-07 13:44:00,
2014-01-07 08:50:00,7.4,-12.4,30.38,SW,229,0.0,0.0,39,0.00,,,0.00,Wunderground v.1.15,2014-01-07 13:50:00,
2014-01-07 08:55:00,7.7,-11.2,30.38,WSW,248,0.0,0.0,41,0.00,,,0.00,Wunderground v.1.15,2014-01-07 13:55:00,
2014-01-07 09:01:00,8.8,-9.2,30.40,South,176,0.0,0.0,43,0.00,,,0.00,Wunderground v.1.15,2014-01-07 14:01:00,
2014-01-07 09:07:00,8.6,-10.3,30.40,SSE,157,0.0,0.0,41,0.00,,,0.00,Wunderground v.1.15,2014-01-07 14:07:00,
2014-01-07 09:12:00,8.6,-9.4,30.40,SSW,199,0.0,0.0,43,0.00,,,0.00,Wunderground v.1.15,2014-01-07 14:12:00,
2014-01-07 09:18:00,9.2,-9.8,30.40,SW,227,0.0,0.0,41,0.00,,,0.00,Wunderground v.1.15,2014-01-07 14:18:00,
2014-01-07 09:23:00,9.0,-10.0,30.40,SW,215,0.0,0.0,41,0.00,,,0.00,Wunderground v.1.15,2014-01-07 14:23:00,
2014-01-07 09:29:00,9.0,-10.0,30.40,SSE,167,0.0,0.0,41,0.00,,,0.00,Wunderground v.1.15,2014-01-07 14:29:00,
2014-01-07 09:34:00,9.9,-9.1,30.40,SW,217,0.0,0.0,41,0.00,,,0.00,Wunderground v.1.15,2014-01-07 14:34:00,
2014-01-07 09:40:00,10.0,-10.1,30.40,SW,226,0.0,0.0,39,0.00,,,0.00,Wunderground v.1.15,2014-01-07 14:40:00,
2014-01-07 09:46:00,10.0,-10.1,30.41,ENE,62,0.0,0.0,39,0.00,,,0.00,Wunderground v.1.15,2014-01-07 14:46:00,
2014-01-07 09:51:00,10.0,-10.1,30.41,ENE,72,0.0,0.0,39,0.00,,,0.00,Wunderground v.1.15,2014-01-07 14:51:00,
2014-01-07 09:57:00,11.9,-11.7,30.41,NE,37,0.0,1.0,33,0.00,,,0.00,Wunderground v.1.15,2014-01-07 14:57:00,
2014-01-07 10:02:00,12.3,-11.4,30.40,NW,315,2.0,10.0,33,0.00,,,0.00,Wunderground v.1.15,2014-01-07 15:02:00,
2014-01-07 10:08:00,12.9,-9.7,30.40,WSW,254,3.0,10.0,35,0.00,,,0.00,Wunderground v.1.15,2014-01-07 15:08:00,
2014-01-07 10:14:00,13.1,-11.3,30.40,WSW,240,5.0,11.0,32,0.00,,,0.00,Wunderground v.1.15,2014-01-07 15:14:00,
2014-01-07 10:19:00,13.3,-11.1,30.40,WSW,257,2.0,11.0,32,0.00,,,0.00,Wunderground v.1.15,2014-01-07 15:19:00,
2014-01-07 10:25:00,13.8,-10.7,30.40,SSW,195,1.0,2.0,32,0.00,,,0.00,Wunderground v.1.15,2014-01-07 15:25:00,
2014-01-07 10:30:00,14.4,-10.8,30.40,East,80,1.0,1.0,31,0.00,,,0.00,Wunderground v.1.15,2014-01-07 15:30:00,
2014-01-07 10:36:00,14.6,-10.6,30.40,SW,227,1.0,3.0,31,0.00,,,0.00,Wunderground v.1.15,2014-01-07 15:36:00,
2014-01-07 10:41:00,15.2,-9.4,30.40,WSW,241,1.0,6.0,32,0.00,,,0.00,Wunderground v.1.15,2014-01-07 15:41:00,
2014-01-07 10:47:00,14.8,-9.8,30.41,ENE,69,1.0,6.0,32,0.00,,,0.00,Wunderground v.1.15,2014-01-07 15:47:00,
2014-01-07 10:52:00,15.1,-9.5,30.41,NW,308,1.0,1.0,32,0.00,,,0.00,Wunderground v.1.15,2014-01-07 15:52:00,
2014-01-07 10:58:00,15.2,-9.4,30.41,North,4,0.0,1.0,32,0.00,,,0.00,Wunderground v.1.15,2014-01-07 15:58:00,
2014-01-07 11:03:00,15.6,-9.1,30.40,North,0,0.0,2.0,32,0.00,,,0.00,Wunderground v.1.15,2014-01-07 16:03:00,
2014-01-07 11:09:00,15.2,-9.4,30.40,East,89,0.0,2.0,32,0.00,,,0.00,Wunderground v.1.15,2014-01-07 16:09:00,
2014-01-07 11:15:00,15.9,-10.1,30.39,East,86,0.0,0.0,30,0.00,,,0.00,Wunderground v.1.15,2014-01-07 16:15:00,
2014-01-07 11:21:00,16.4,-11.1,30.39,North,0,0.0,0.0,28,0.00,,,0.00,Wunderground v.1.15,2014-01-07 16:21:00,
2014-01-07 11:26:00,16.7,-10.1,30.39,NNE,23,0.0,0.0,29,0.00,,,0.00,Wunderground v.1.15,2014-01-07 16:26:00,
2014-01-07 11:32:00,16.9,-10.6,30.38,South,176,1.0,1.0,28,0.00,,,0.00,Wunderground v.1.15,2014-01-07 16:32:00,
2014-01-07 11:37:00,16.2,-9.2,30.38,East,82,1.0,2.0,31,0.00,,,0.00,Wunderground v.1.15,2014-01-07 16:37:00,
2014-01-07 11:43:00,16.5,-11.0,30.38,SW,229,1.0,3.0,28,0.00,,,0.00,Wunderground v.1.15,2014-01-07 16:43:00,
2014-01-07 11:48:00,16.9,-9.2,30.36,West,270,1.0,3.0,30,0.00,,,0.00,Wunderground v.1.15,2014-01-07 16:48:00,
2014-01-07 11:54:00,17.3,-10.3,30.36,SW,220,0.0,1.0,28,0.00,,,0.00,Wunderground v.1.15,2014-01-07 16:54:00,
2014-01-07 11:59:00,18.1,-9.6,30.36,WSW,247,0.0,1.0,28,0.00,,,0.00,Wunderground v.1.15,2014-01-07 16:59:00,
2014-01-07 12:05:00,18.8,-9.0,30.34,NNE,16,0.0,0.0,28,0.00,,,0.00,Wunderground v.1.15,2014-01-07 17:05:00,
2014-01-07 12:11:00,19.4,-9.2,30.34,NE,51,0.0,0.0,27,0.00,,,0.00,Wunderground v.1.15,2014-01-07 17:11:00,
2014-01-07 12:16:00,19.1,-9.5,30.32,SW,229,0.0,3.0,27,0.00,,,0.00,Wunderground v.1.15,2014-01-07 17:16:00,
2014-01-07 12:22:00,19.1,-8.7,30.32,ENE,62,1.0,1.0,28,0.00,,,0.00,Wunderground v.1.15,2014-01-07 17:22:00,
2014-01-07 12:27:00,19.1,-8.7,30.32,SSE,148,0.0,1.0,28,0.00,,,0.00,Wunderground v.1.15,2014-01-07 17:27:00,
2014-01-07 12:33:00,19.7,-8.2,30.30,ESE,106,0.0,4.0,28,0.00,,,0.00,Wunderground v.1.15,2014-01-07 17:33:00,
2014-01-07 12:38:00,19.9,-7.3,30.30,North,3,0.0,4.0,29,0.00,,,0.00,Wunderground v.1.15,2014-01-07 17:38:00,
2014-01-07 12:44:00,20.2,-8.5,30.30,ESE,106,0.0,0.0,27,0.00,,,0.00,Wunderground v.1.15,2014-01-07 17:44:00,
2014-01-07 12:50:00,21.0,-7.8,30.29,West,277,0.0,0.0,27,0.00,,,0.00,Wunderground v.1.15,2014-01-07 17:50:00,
2014-01-07 12:55:00,21.6,-7.3,30.29,East,86,0.0,6.0,27,0.00,,,0.00,Wunderground v.1.15,2014-01-07 17:55:00,
2014-01-07 13:01:00,21.6,-7.3,30.28,ENE,71,0.0,0.0,27,0.00,,,0.00,Wunderground v.1.15,2014-01-07 18:01:00,
2014-01-07 13:07:00,22.1,-7.6,30.28,West,265,0.0,0.0,26,0.00,,,0.00,Wunderground v.1.15,2014-01-07 18:07:00,
2014-01-07 13:12:00,22.2,-8.4,30.28,West,270,0.0,0.0,25,0.00,,,0.00,Wunderground v.1.15,2014-01-07 18:12:00,
2014-01-07 13:18:00,22.4,-6.6,30.28,West,263,0.0,0.0,27,0.00,,,0.00,Wunderground v.1.15,2014-01-07 18:18:00,
2014-01-07 13:23:00,22.5,-7.3,30.28,West,261,0.0,1.0,26,0.00,,,0.00,Wunderground v.1.15,2014-01-07 18:23:00,
2014-01-07 13:29:00,22.5,-8.1,30.28,WSW,251,1.0,3.0,25,0.00,,,0.00,Wunderground v.1.15,2014-01-07 18:29:00,
2014-01-07 13:34:00,22.9,-7.8,30.26,WNW,294,1.0,3.0,25,0.00,,,0.00,Wunderground v.1.15,2014-01-07 18:34:00,
2014-01-07 13:40:00,23.3,-7.4,30.26,East,86,1.0,1.0,25,0.00,,,0.00,Wunderground v.1.15,2014-01-07 18:40:00,
2014-01-07 13:46:00,23.6,-6.3,30.27,West,280,0.0,1.0,26,0.00,,,0.00,Wunderground v.1.15,2014-01-07 18:46:00,
2014-01-07 13:51:00,23.3,-6.6,30.27,WSW,256,2.0,8.0,26,0.00,,,0.00,Wunderground v.1.15,2014-01-07 18:51:00,
2014-01-07 13:57:00,23.3,-6.6,30.27,East,85,3.0,8.0,26,0.00,,,0.00,Wunderground v.1.15,2014-01-07 18:57:00,
2014-01-07 14:03:00,23.9,-7.7,30.27,ENE,72,1.0,1.0,24,0.00,,,0.00,Wunderground v.1.15,2014-01-07 19:03:00,
2014-01-07 14:08:00,24.4,-6.5,30.27,SSW,193,0.0,1.0,25,0.00,,,0.00,Wunderground v.1.15,2014-01-07 19:08:00,
2014-01-07 14:14:00,24.7,-7.0,30.27,West,267,0.0,0.0,24,0.00,,,0.00,Wunderground v.1.15,2014-01-07 19:14:00,
2014-01-07 14:19:00,24.4,-7.3,30.28,SSE,157,0.0,0.0,24,0.00,,,0.00,Wunderground v.1.15,2014-01-07 19:19:00,
2014-01-07 14:25:00,24.1,-7.6,30.28,SW,229,0.0,2.0,24,0.00,,,0.00,Wunderground v.1.15,2014-01-07 19:25:00,
2014-01-07 14:31:00,23.9,-6.9,30.28,East,95,1.0,1.0,25,0.00,,,0.00,Wunderground v.1.15,2014-01-07 19:31:00,
2014-01-07 14:36:00,24.5,-5.6,30.28,East,95,0.0,1.0,26,0.00,,,0.00,Wunderground v.1.15,2014-01-07 19:36:00,
2014-01-07 14:42:00,25.3,-6.5,30.28,WSW,244,0.0,0.0,24,0.00,,,0.00,Wunderground v.1.15,2014-01-07 19:42:00,
2014-01-07 14:47:00,25.4,-6.4,30.28,SW,222,0.0,0.0,24,0.00,,,0.00,Wunderground v.1.15,2014-01-07 19:47:00,
2014-01-07 14:53:00,25.3,-6.5,30.28,South,181,0.0,0.0,24,0.00,,,0.00,Wunderground v.1.15,2014-01-07 19:53:00,
2014-01-07 14:58:00,25.4,-5.6,30.28,SSW,203,0.0,0.0,25,0.00,,,0.00,Wunderground v.1.15,2014-01-07 19:58:00,
2014-01-07 15:03:00,25.4,-8.2,30.27,WSW,244,0.0,0.0,22,0.00,,,0.00,Wunderground v.1.15,2014-01-07 20:03:00,
2014-01-07 15:09:00,25.4,-6.4,30.27,West,263,0.0,0.0,24,0.00,,,0.00,Wunderground v.1.15,2014-01-07 20:09:00,
2014-01-07 15:14:00,25.4,-6.4,30.27,West,263,0.0,0.0,24,0.00,,,0.00,Wunderground v.1.15,2014-01-07 20:14:00,
2014-01-07 15:20:00,25.7,-7.1,30.28,WSW,246,0.0,0.0,23,0.00,,,0.00,Wunderground v.1.15,2014-01-07 20:20:00,
2014-01-07 15:25:00,25.6,-7.1,30.28,WSW,239,0.0,0.0,23,0.00,,,0.00,Wunderground v.1.15,2014-01-07 20:25:00,
2014-01-07 15:31:00,25.1,-6.7,30.28,SW,226,0.0,0.0,24,0.00,,,0.00,Wunderground v.1.15,2014-01-07 20:31:00,
2014-01-07 15:37:00,25.3,-6.5,30.28,SW,234,0.0,1.0,24,0.00,,,0.00,Wunderground v.1.15,2014-01-07 20:37:00,
2014-01-07 15:42:00,25.1,-5.9,30.28,SSW,208,0.0,0.0,25,0.00,,,0.00,Wunderground v.1.15,2014-01-07 20:42:00,
2014-01-07 15:48:00,25.1,-6.7,30.29,WSW,241,0.0,2.0,24,0.00,,,0.00,Wunderground v.1.15,2014-01-07 20:48:00,
2014-01-07 15:53:00,24.8,-5.3,30.29,SW,236,0.0,0.0,26,0.00,,,0.00,Wunderground v.1.15,2014-01-07 20:53:00,
2014-01-07 15:59:00,24.4,-5.6,30.29,NNW,344,0.0,0.0,26,0.00,,,0.00,Wunderground v.1.15,2014-01-07 20:59:00,
2014-01-07 16:04:00,24.4,-5.6,30.30,WSW,244,0.0,1.0,26,0.00,,,0.00,Wunderground v.1.15,2014-01-07 21:04:00,
2014-01-07 16:10:00,24.4,-4.1,30.30,WSW,247,0.0,0.0,28,0.00,,,0.00,Wunderground v.1.15,2014-01-07 21:10:00,
2014-01-07 16:15:00,24.2,-6.6,30.30,WSW,256,0.0,0.0,25,0.00,,,0.00,Wunderground v.1.15,2014-01-07 21:15:00,
2014-01-07 16:21:00,23.9,-6.9,30.30,WSW,254,1.0,10.0,25,0.00,,,0.00,Wunderground v.1.15,2014-01-07 21:21:00,
2014-01-07 16:26:00,23.9,-6.9,30.30,SW,233,2.0,10.0,25,0.00,,,0.00,Wunderground v.1.15,2014-01-07 21:26:00,
2014-01-07 16:32:00,23.8,-6.2,30.31,SSW,210,1.0,8.0,26,0.00,,,0.00,Wunderground v.1.15,2014-01-07 21:32:00,
2014-01-07 16:37:00,23.6,-5.6,30.31,SW,233,1.0,8.0,27,0.00,,,0.00,Wunderground v.1.15,2014-01-07 21:37:00,
2014-01-07 16:43:00,23.5,-4.9,30.31,SW,219,1.0,5.0,28,0.00,,,0.00,Wunderground v.1.15,2014-01-07 21:43:00,
2014-01-07 16:48:00,23.3,-5.1,30.32,SW,226,1.0,5.0,28,0.00,,,0.00,Wunderground v.1.15,2014-01-07 21:48:00,
2014-01-07 16:54:00,23.2,-4.4,30.32,WSW,243,0.0,1.0,29,0.00,,,0.00,Wunderground v.1.15,2014-01-07 21:54:00,
2014-01-07 16:59:00,23.0,-4.6,30.32,WSW,240,0.0,1.0,29,0.00,,,0.00,Wunderground v.1.15,2014-01-07 21:59:00,
2014-01-07 17:05:00,22.7,-4.1,30.33,WSW,237,0.0,2.0,30,0.00,,,0.00,Wunderground v.1.15,2014-01-07 22:05:00,
2014-01-07 17:11:00,22.4,-1.8,30.33,WSW,250,0.0,0.0,34,0.00,,,0.00,Wunderground v.1.15,2014-01-07 22:11:00,
2014-01-07 17:16:00,22.2,-2.0,30.34,WSW,250,0.0,0.0,34,0.00,,,0.00,Wunderground v.1.15,2014-01-07 22:16:00,
2014-01-07 17:22:00,21.9,-0.4,30.34,WSW,250,0.0,0.0,37,0.00,,,0.00,Wunderground v.1.15,2014-01-07 22:22:00,
2014-01-07 17:27:00,21.6,-0.7,30.34,WSW,250,0.0,0.0,37,0.00,,,0.00,Wunderground v.1.15,2014-01-07 22:27:00,
2014-01-07 17:33:00,21.3,0.7,30.34,WSW,250,0.0,0.0,40,0.00,,,0.00,Wunderground v.1.15,2014-01-07 22:33:00,
2014-01-07 17:39:00,21.1,1.6,30.34,WSW,250,0.0,0.0,42,0.00,,,0.00,Wunderground v.1.15,2014-01-07 22:39:00,
2014-01-07 17:44:00,20.8,1.8,30.34,WSW,250,0.0,0.0,43,0.00,,,0.00,Wunderground v.1.15,2014-01-07 22:44:00,
2014-01-07 17:50:00,20.5,3.9,30.34,WSW,250,0.0,0.0,48,0.00,,,0.00,Wunderground v.1.15,2014-01-07 22:50:00,
2014-01-07 17:55:00,20.2,2.7,30.34,WSW,250,0.0,0.0,46,0.00,,,0.00,Wunderground v.1.15,2014-01-07 22:55:00,
2014-01-07 18:01:00,19.9,2.4,30.35,WSW,250,0.0,0.0,46,0.00,,,0.00,Wunderground v.1.15,2014-01-07 23:01:00,
2014-01-07 18:07:00,19.5,3.0,30.35,WSW,250,0.0,0.0,48,0.00,,,0.00,Wunderground v.1.15,2014-01-07 23:07:00,
2014-01-07 18:12:00,19.2,2.2,30.35,WSW,250,0.0,0.0,47,0.00,,,0.00,Wunderground v.1.15,2014-01-07 23:12:00,
2014-01-07 18:18:00,18.8,3.2,30.36,WSW,250,0.0,0.0,50,0.00,,,0.00,Wunderground v.1.15,2014-01-07 23:18:00,
2014-01-07 18:24:00,18.6,2.1,30.36,WSW,250,0.0,0.0,48,0.00,,,0.00,Wunderground v.1.15,2014-01-07 23:24:00,
2014-01-07 18:29:00,18.3,3.2,30.36,WSW,250,0.0,0.0,51,0.00,,,0.00,Wunderground v.1.15,2014-01-07 23:29:00,
2014-01-07 18:35:00,18.0,3.7,30.36,WSW,250,0.0,0.0,53,0.00,,,0.00,Wunderground v.1.15,2014-01-07 23:35:00,
2014-01-07 18:40:00,17.7,3.4,30.36,WSW,250,0.0,0.0,53,0.00,,,0.00,Wunderground v.1.15,2014-01-07 23:40:00,
2014-01-07 18:46:00,17.3,3.9,30.37,WSW,250,0.0,0.0,55,0.00,,,0.00,Wunderground v.1.15,2014-01-07 23:46:00,
2014-01-07 18:51:00,17.0,3.2,30.37,WSW,250,0.0,0.0,54,0.00,,,0.00,Wunderground v.1.15,2014-01-07 23:51:00,
2014-01-07 18:57:00,16.7,4.1,30.37,WSW,250,0.0,0.0,57,0.00,,,0.00,Wunderground v.1.15,2014-01-07 23:57:00,
2014-01-07 19:02:00,16.5,3.5,30.36,WSW,250,0.0,0.0,56,0.00,,,0.00,Wunderground v.1.15,2014-01-08 00:02:00,
2014-01-07 19:08:00,16.4,4.6,30.36,WSW,250,0.0,0.0,59,0.00,,,0.00,Wunderground v.1.15,2014-01-08 00:08:00,
2014-01-07 19:13:00,16.1,3.9,30.36,WSW,250,0.0,0.0,58,0.00,,,0.00,Wunderground v.1.15,2014-01-08 00:13:00,
2014-01-07 19:18:00,15.9,3.7,30.36,WSW,250,0.0,0.0,58,0.00,,,0.00,Wunderground v.1.15,2014-01-08 00:18:00,
2014-01-07 19:23:00,15.7,3.5,30.36,WSW,250,0.0,0.0,58,0.00,,,0.00,Wunderground v.1.15,2014-01-08 00:23:00,
2014-01-07 19:29:00,15.6,4.5,30.36,WSW,250,0.0,0.0,61,0.00,,,0.00,Wunderground v.1.15,2014-01-08 00:29:00,
2014-01-07 19:35:00,15.4,5.0,30.37,WSW,250,0.0,0.0,63,0.00,,,0.00,Wunderground v.1.15,2014-01-08 00:35:00,
2014-01-07 19:40:00,15.1,5.1,30.37,WSW,250,0.0,0.0,64,0.00,,,0.00,Wunderground v.1.15,2014-01-08 00:40:00,
2014-01-07 19:46:00,14.8,4.5,30.38,WSW,250,0.0,0.0,63,0.00,,,0.00,Wunderground v.1.15,2014-01-08 00:46:00,
2014-01-07 19:52:00,14.6,4.6,30.38,WSW,250,0.0,0.0,64,0.00,,,0.00,Wunderground v.1.15,2014-01-08 00:52:00,
2014-01-07 19:57:00,14.4,4.4,30.38,WSW,250,0.0,0.0,64,0.00,,,0.00,Wunderground v.1.15,2014-01-08 00:57:00,
2014-01-07 20:03:00,14.3,4.3,30.39,WSW,250,0.0,0.0,64,0.00,,,0.00,Wunderground v.1.15,2014-01-08 01:03:00,
2014-01-07 20:08:00,14.1,3.8,30.39,WSW,250,0.0,0.0,63,0.00,,,0.00,Wunderground v.1.15,2014-01-08 01:08:00,
2014-01-07 20:14:00,14.0,4.1,30.39,WSW,250,0.0,0.0,64,0.00,,,0.00,Wunderground v.1.15,2014-01-08 01:14:00,
2014-01-07 20:20:00,13.8,4.5,30.38,WSW,250,0.0,0.0,66,0.00,,,0.00,Wunderground v.1.15,2014-01-08 01:20:00,
2014-01-07 20:25:00,13.6,4.3,30.38,WSW,250,0.0,0.0,66,0.00,,,0.00,Wunderground v.1.15,2014-01-08 01:25:00,
2014-01-07 20:31:00,13.5,4.2,30.38,WSW,250,0.0,0.0,66,0.00,,,0.00,Wunderground v.1.15,2014-01-08 01:31:00,
2014-01-07 20:36:00,13.3,4.4,30.38,WSW,250,0.0,0.0,67,0.00,,,0.00,Wunderground v.1.15,2014-01-08 01:36:00,
2014-01-07 20:42:00,13.1,4.8,30.38,WSW,250,0.0,0.0,69,0.00,,,0.00,Wunderground v.1.15,2014-01-08 01:42:00,
2014-01-07 20:48:00,12.9,5.0,30.38,WSW,250,0.0,0.0,70,0.00,,,0.00,Wunderground v.1.15,2014-01-08 01:48:00,
2014-01-07 20:53:00,12.8,4.9,30.38,WSW,250,0.0,0.0,70,0.00,,,0.00,Wunderground v.1.15,2014-01-08 01:53:00,
2014-01-07 20:59:00,12.6,4.7,30.38,WSW,250,0.0,0.0,70,0.00,,,0.00,Wunderground v.1.15,2014-01-08 01:59:00,
2014-01-07 21:05:00,12.4,4.8,30.38,WSW,250,0.0,0.0,71,0.00,,,0.00,Wunderground v.1.15,2014-01-08 02:05:00,
2014-01-07 21:10:00,12.4,4.8,30.38,WSW,250,0.0,0.0,71,0.00,,,0.00,Wunderground v.1.15,2014-01-08 02:10:00,
2014-01-07 21:16:00,12.3,4.7,30.39,WSW,250,0.0,0.0,71,0.00,,,0.00,Wunderground v.1.15,2014-01-08 02:16:00,
2014-01-07 21:21:00,12.1,4.5,30.39,WSW,250,0.0,0.0,71,0.00,,,0.00,Wunderground v.1.15,2014-01-08 02:21:00,
2014-01-07 21:27:00,12.1,4.5,30.39,WSW,250,0.0,0.0,71,0.00,,,0.00,Wunderground v.1.15,2014-01-08 02:27:00,
2014-01-07 21:33:00,11.9,4.3,30.39,WSW,250,0.0,0.0,71,0.00,,,0.00,Wunderground v.1.15,2014-01-08 02:33:00,
2014-01-07 21:39:00,11.7,4.4,30.39,WSW,250,0.0,0.0,72,0.00,,,0.00,Wunderground v.1.15,2014-01-08 02:39:00,
2014-01-07 21:45:00,11.6,4.9,30.39,WSW,250,0.0,0.0,74,0.00,,,0.00,Wunderground v.1.15,2014-01-08 02:45:00,
2014-01-07 21:50:00,11.4,4.7,30.39,WSW,250,0.0,0.0,74,0.00,,,0.00,Wunderground v.1.15,2014-01-08 02:50:00,
2014-01-07 21:56:00,11.4,5.0,30.39,WSW,250,0.0,0.0,75,0.00,,,0.00,Wunderground v.1.15,2014-01-08 02:56:00,
2014-01-07 22:02:00,11.2,4.8,30.39,WSW,250,0.0,0.0,75,0.00,,,0.00,Wunderground v.1.15,2014-01-08 03:02:00,
2014-01-07 22:08:00,11.1,4.7,30.39,WSW,250,0.0,0.0,75,0.00,,,0.00,Wunderground v.1.15,2014-01-08 03:08:00,
2014-01-07 22:13:00,10.9,4.5,30.39,WSW,250,0.0,0.0,75,0.00,,,0.00,Wunderground v.1.15,2014-01-08 03:13:00,
2014-01-07 22:19:00,10.9,4.8,30.39,WSW,250,0.0,0.0,76,0.00,,,0.00,Wunderground v.1.15,2014-01-08 03:19:00,
2014-01-07 22:24:00,10.7,4.6,30.39,WSW,250,0.0,0.0,76,0.00,,,0.00,Wunderground v.1.15,2014-01-08 03:24:00,
2014-01-07 22:30:00,10.5,4.4,30.39,WSW,250,0.0,0.0,76,0.00,,,0.00,Wunderground v.1.15,2014-01-08 03:30:00,
2014-01-07 22:35:00,10.5,4.7,30.39,WSW,250,0.0,0.0,77,0.00,,,0.00,Wunderground v.1.15,2014-01-08 03:35:00,
2014-01-07 22:41:00,10.4,4.6,30.39,WSW,250,0.0,0.0,77,0.00,,,0.00,Wunderground v.1.15,2014-01-08 03:41:00,
2014-01-07 22:46:00,10.2,4.7,30.40,WSW,250,0.0,0.0,78,0.00,,,0.00,Wunderground v.1.15,2014-01-08 03:46:00,
2014-01-07 22:52:00,10.2,4.7,30.40,WSW,250,0.0,0.0,78,0.00,,,0.00,Wunderground v.1.15,2014-01-08 03:52:00,
2014-01-07 22:58:00,10.0,4.5,30.40,WSW,250,0.0,0.0,78,0.00,,,0.00,Wunderground v.1.15,2014-01-08 03:58:00,
2014-01-07 23:03:00,9.9,4.4,30.39,WSW,250,0.0,0.0,78,0.00,,,0.00,Wunderground v.1.15,2014-01-08 04:03:00,
2014-01-07 23:09:00,9.9,4.7,30.39,WSW,250,0.0,0.0,79,0.00,,,0.00,Wunderground v.1.15,2014-01-08 04:09:00,
2014-01-07 23:14:00,9.7,4.5,30.39,WSW,250,0.0,0.0,79,0.00,,,0.00,Wunderground v.1.15,2014-01-08 04:14:00,
2014-01-07 23:20:00,9.7,4.5,30.38,WSW,250,0.0,0.0,79,0.00,,,0.00,Wunderground v.1.15,2014-01-08 04:20:00,
2014-01-07 23:26:00,9.5,4.3,30.38,WSW,250,0.0,0.0,79,0.00,,,0.00,Wunderground v.1.15,2014-01-08 04:26:00,
2014-01-07 23:31:00,9.5,4.6,30.38,WSW,250,0.0,0.0,80,0.00,,,0.00,Wunderground v.1.15,2014-01-08 04:31:00,
2014-01-07 23:37:00,9.3,4.4,30.38,WSW,250,0.0,0.0,80,0.00,,,0.00,Wunderground v.1.15,2014-01-08 04:37:00,
2014-01-07 23:42:00,9.3,4.4,30.38,WSW,250,0.0,0.0,80,0.00,,,0.00,Wunderground v.1.15,2014-01-08 04:42:00,
2014-01-07 23:48:00,9.2,4.3,30.38,WSW,250,0.0,0.0,80,0.00,,,0.00,Wunderground v.1.15,2014-01-08 04:48:00,
2014-01-07 23:53:00,9.2,4.3,30.38,WSW,250,0.0,0.0,80,0.00,,,0.00,Wunderground v.1.15,2014-01-08 04:53:00,
2014-01-07 23:59:00,9.0,4.4,30.38,WSW,250,0.0,0.0,81,0.00,,,0.00,Wunderground v.1.15,2014-01-08 04:59:00,